Вернуться в каталог

STARLINK-30043

АктивенСвязьVLEO
NORAD 57417·PAYLOAD·🇺🇸 United States

Запущен Jul 20, 2023 с Vandenberg Space Force Base

Loading…

Ближайшие Пролёты (ближайшие 24 часа)

TLE

СвежийSource: CelesTrak SupGP

Эпоха: Sep 15, 2026, 02:34 UTC

1 57417C 23102P   26258.10743056 -.00015363  00000+0 -55645-3 0  2586
2 57417  43.0003 258.9091 0001463 269.4187 255.9505 15.27585054    15

Отслеживайте STARLINK-30043 в реальном времени с AllMySat

Download on the App Store